If you wish to contribute or participate in the discussions about articles you are invited to join SKYbrary as a registered user

 Actions

Mundo Maya International Airport

From SKYbrary Wiki

MGMM
Airport
ICAO: MGMM – IATA: FRS
Summary
Name Mundo Maya International Airport
Region South America and Caribbean
Territory Guatemala GT.gif
Location Santa Elena, Peten Department
Serving Flores
Elevation 117.958 m
387 ft117.958 m
Coordinates 16° 54' 52.78" N, 89° 52' 37.99" W
Runways
Designator Length Width Surface ROPS


METAR
Observation MGMM 210300Z 00000KT CAVOK 20/19 Q1018 A3006
Station Melchor de Mencos Airport
Date/Time 21 November 2019 03:00:00
Wind direction
Wind speed 00 kts
Lowest cloud amount clouds and visibility OK
Temperature 20°C
Dew point 19°C
Humidity 93%
QNH 1018 hPa
Weather condition n/a

Mundo Maya International Airport (Spanish: Aeropuerto Internacional Mundo Maya), formerly Flores International Airport, is an international airport located in the suburb of Santa Elena, in the city of Flores, Guatemala.

Climatology

Tropical rainforest climate (Köppen climate classification Af)

Maps

Terrain

Loading map...

Airport Layout

Loading map...


Accidents & Serious Incidents at or in vicinity of MGMM

None on SKYbrary